Iridium 18 - Orbit

View from above orbital plane
View from above orbital plane
View from above satellite
View from above satellite

Ground track
Ground track

The orbit data is extracted from the following two-line orbital elements,

1 24872U 97034D   13170.40279713  .00000250  00000-0  82043-4 0  3779
2 24872 086.3977 271.7251 0002408 107.8175 252.3283 14.34215827834820
Epoch (UTC): 19 June 2013 09:40:01
Eccentricity: 0.0002408
inclination: 86.3977°
perigee height: 776 km
apogee height: 779 km
right ascension of ascending node: 271.7251°
argument of perigee: 107.8175°
revolutions per day: 14.34215827
mean anomaly at epoch: 252.3283°
orbit number at epoch: 83482

The dashed part of the orbit path shows where the satellite is in the earth's shadow,  

Developed and maintained by Chris Peat, Heavens-Above GmbH. Please read the updated FAQ before sending e-mail. Imprint. DLR